Weather Roundup
Issued by NWS

Home | Current Version | Previous Version | Graphics & Text | Print | Product List | Glossary Off
Versions: 1 2 3 4 5 6 7 8 9 10 11 12 13 14 15 16 17 18 19 20 21 22 23 24 25 26 27 28 29 30 31 32 33 34 35 36 37 38 39 40 41 42 43 44 45 46 47 48 49 50

883
NZUS93 KARX 092259
HRRWXR

CURRENT HOURLY OBSERVATIONS ACROSS
MUCH OF THE UPPER MISSISSIPPI VALLEY
NATIONAL WEATHER SERVICE LA CROSSE WI
500 PM CST TUE FEB 09 2016


...SOUTHEAST MINNESOTA...


CITY           SKY/WX    TMP DP  RH WIND       PRES   REMARKS
ROCHESTER      CLEAR     12   0  58 NW18      30.03R WCI  -6
ROCHESTER/MAYO FAIR      14  -1  51 NW18G28   30.04S WCI  -3
WINONA         CLEAR     18   3  53 N13       30.07R WCI   4
AUSTIN         CLEAR     12   1  62 NW16G23   30.06S WCI  -4
ALBERT LEA     CLEAR     12   1  62 NW14G22   30.08S WCI  -3
DODGE CENTER   PTCLDY    12   0  57 NW13      30.05R WCI  -3
PRESTON        CLEAR     12   0  58 NW18G26   30.02R WCI  -6
OWATONNA       CLEAR     12   1  62 NW15      30.08S WCI  -4
FARIBAULT      CLEAR     14   0  52 NW14      30.10S WCI  -1
$$

...ELSEWHERE IN MINNESOTA...


CITY           SKY/WX    TMP DP  RH WIND       PRES   REMARKS
MINNEAPOLIS    PTCLDY    15  -1  49 NW14G25   30.12R WCI   0
INTNL FALLS    CLEAR      5  -6  60 N16       30.15R WCI -14
DULUTH         PTCLDY     8  -5  55 NW12G24   30.03R WCI  -7
RED WING       CLEAR     16  -4  41 NW9G17    30.08S WCI   4
REDWOOD FALLS  MOCLDY    17   7  64 NW13G24   30.19R WCI   4
MANKATO        CLEAR     16   1  53 NW17      30.13R WCI   0
WORTHINGTON    CLOUDY    18   7  62 NW20      30.17S WCI   1
FAIRMONT       PTCLDY    16   7  67 NW18      30.13S WCI  -1
$$

...SOUTHWEST WISCONSIN...


CITY           SKY/WX    TMP DP  RH WIND       PRES   REMARKS
LA CROSSE      CLEAR     14   1  56 NW16      30.04R WCI  -2
PRAIRIE DU CHI CLEAR     15  -1  49 NW15      30.03R WCI   0
BOSCOBEL       CLEAR     17  -1  45 NW15      30.01R WCI   2
LONE ROCK      NOT AVBL
PLATTEVILLE    MOCLDY    15   5  63 NW14      29.96R WCI   0
FORT MC COY    CLEAR     14   0  53 NW12      30.01R WCI   0
VIROQUA        FAIR      11  -3  53 NW15      29.96R WCI  -5
WIS DELLS      CLOUDY    14   2  59 NW15G24   29.93R WCI  -1
$$

...ELSEWHERE IN WISCONSIN...


CITY           SKY/WX    TMP DP  RH WIND       PRES   REMARKS
MILWAUKEE      LGT SNOW  17   8  67 NW10      29.88R WCI   5
MADISON        CLOUDY    15   4  61 NW13      29.93R WCI   1
GREEN BAY      CLOUDY    17   5  59 N16       29.88R WCI   2
EAU CLAIRE     CLEAR     14  -3  47 NW10      30.03R WCI   1
BLACK RVR FLS  FAIR      13  -3  49 NW8       30.02R WCI   2
MEDFORD        CLOUDY    10   1  66 NW15      29.92R WCI  -7
WAUSAU         CLOUDY    14   2  58 NW14G23   29.90R WCI  -1
WIS RAPIDS     CLOUDY    13   0  56 N9G24     29.95R WCI   1
MARSHFIELD     MOCLDY    12   0  58 NW15      29.93R WCI  -4
RICE LAKE      CLEAR     14  -3  46 NW7G16    30.04R WCI   4
$$

...NORTHEAST IOWA...


CITY           SKY/WX    TMP DP  RH WIND       PRES   REMARKS
WATERLOO       CLEAR     13   3  64 NW17      30.08R WCI  -4
DUBUQUE        CLEAR     13   0  56 NW17G28   29.98R WCI  -4
DECORAH        CLEAR     14   0  52 NW21G29   30.00R WCI  -4
MASON CITY     CLEAR     13   4  67 NW20      30.10R WCI  -5
CHARLES CITY   PTCLDY    14   3  62 NW22G29   30.06R WCI  -4
OELWEIN        CLEAR     12   3  67 NW23G30   30.04R WCI  -7
$$

...ELSEWHERE IN IOWA...


CITY           SKY/WX    TMP DP  RH WIND       PRES   REMARKS
DES MOINES     PTCLDY    18   5  57 NW21      30.17R WCI   1
IOWA CITY      CLEAR     15   4  61 NW17      30.09R WCI  -1
FORT DODGE     CLEAR     16   7  67 NW10G21   30.16R WCI   3
MARSHALLTOWN   PTCLDY    14   5  67 NW20G31   30.11R WCI  -3
CEDAR RAPIDS   PTCLDY    13   6  74 NW24      30.05R WCI  -7
$$

...NORTHERN ILLINOIS...


CITY           SKY/WX    TMP DP  RH WIND       PRES   REMARKS
CHICAGO-OHARE  CLOUDY    17   7  64 NW14      29.90R WCI   3
CHICAGO-MIDWAY FLURRIES  18   6  59 NW14      29.91R WCI   4
MOLINE         CLOUDY    15   5  64 NW20G28   30.02R WCI  -2
ROCKFORD       CLOUDY    15   6  67 NW10      29.96R WCI   2
PEORIA         CLOUDY    17   6  62 NW14      30.01R WCI   3
$$

NOTE: "FAIR" INDICATES FEW OR NO CLOUDS BELOW 12,000 FEET WITH NO
SIGNIFICANT WEATHER AND/OR OBSTRUCTIONS TO VISIBILITY. WIND
SPEEDS ARE IN MILES-PER-HOUR.




USA.gov is the U.S. government's official web portal to all federal, state and local government web resources and services.